This is the latest recevied weather packets stored in our database for station/object KBVX. If no packets are shown the sender has not sent any weather packets the latest 10 day(s).
| Time | Temp. | Humidity | Pressure | Rain* | Wind** | Luminosity | Snow |
|---|---|---|---|---|---|---|---|
| 1777870405 | 18.89° C | 59% | 1014.6 hPa | - | - | - | - |
| 1777869802 | 18.89° C | 59% | 1014.6 hPa | - | - | - | - |
| 1777869205 | 18.89° C | 59% | 1014.6 hPa | - | - | - | - |
| 1777868605 | 18.89° C | 59% | 1014.6 hPa | - | - | - | - |
| 1777868005 | 18.89° C | 59% | 1014.6 hPa | - | - | - | - |
| 1777867534 | 18.89° C | 59% | 1014.6 hPa | - | - | - | - |
| 1777866807 | 18.89° C | 55% | 1014.6 hPa | - | - | - | - |
| 1777866210 | 18.89° C | 55% | 1014.6 hPa | - | - | - | - |
| 1777847013 | 23.89° C | 38% | 1015.2 hPa | - | - | - | - |
| 1777845211 | 23.89° C | 38% | 1016.3 hPa | - | - | - | - |
| 1777842812 | 23.89° C | 38% | 1016.3 hPa | - | - | - | - |
| 1777840407 | 23.89° C | 38% | 1017.3 hPa | - | - | - | - |
| 1777839813 | 23.89° C | 38% | 1017.3 hPa | - | - | - | - |
| 1777839213 | 23.89° C | 38% | 1017.3 hPa | - | - | - | - |
| 1777838609 | 23.89° C | 38% | 1017.3 hPa | - | - | - | - |
| 1777829008 | 18.89° C | 45% | 1020.7 hPa | - | - | - | - |
| 1777828408 | 18.89° C | 45% | 1020.7 hPa | - | - | - | - |
| 1777826611 | 17.78° C | 45% | 1021.3 hPa | - | - | - | - |
| 1777824216 | 17.78° C | 45% | 1021.3 hPa | - | - | - | - |
| 1777821815 | 16.67° C | 48% | 1022 hPa | - | - | - | - |
| 1777810408 | 5.56° C | 93% | 1021.7 hPa | - | - | - | - |
| 1777803207 | 5.56° C | 86% | 1021.3 hPa | - | - | - | - |
| 1777800808 | 5.56° C | 93% | 1021.3 hPa | - | - | - | - |
| 1777800207 | 5.56° C | 93% | 1021.3 hPa | - | - | - | - |
| 1777799608 | 5.56° C | 93% | 1021.3 hPa | - | - | - | - |
* Rain since midnight (hover to see other rain measurements)
** Current wind speed in m/s (hover to see current wind gust speed)